TDRS 13 (42915 NORAD) Tracking and Keplerian Element Data

This shows tracking and keplerian element data for the satellite.

Feedback or suggestion? Click here.




ElementValue
Catalog42915
NameTDRS 13
Epoch Orbit1871
Epoch Day269.59660005
Epoch Year2022
RAAN334.4279
Inclination4.341
Eccentricity0.0016523
Argument of Perigee125.1226
Mean Anonmoly109.1812
Mean Motion1.00272435
Decay Rate-1E-06
L11 42915U 17047A 22269.59660005 -.00000100 00000+0 00000+0 0 9992
L22 42915 4.3410 334.4279 0016523 125.1226 109.1812 1.00272435 18716

Live tracking and technical data element details for TDRS 13 (NORAD 42915). TDRS 13 can be tracked NOW for your location showing map with azimuth and elevation plus other details from your city location.

Track the satellite on the map from your city or location and see movement details for azimuth, elevation, latitude, longitude, range, height, and movement on the map or in text.







IsCatalogInMostPopularTable: catalog: 42915, numindb: 657
Update: records affected: 1



GetName: 42915 TDRS 13

Hit Count: updated at: Wed, 28 Sep 2022 22:13:23 GMT